User: anonymous   Login
Location: Brno
(49.2000°N, 16.6330°E)
Time: 20:58:49
(UTC+02:00)
Language:

Meteor 1-4 Rocket - Orbit

View from above orbital plane
View from above orbital plane
View from above satellite
View from above satellite

Ground track
Ground track

The orbit data is extracted from the following two-line orbital elements,

1  4394U 70037B   17174.89844053 +.00001097 +00000-0 +37897-4 0  9993
2  4394 081.2416 006.9597 0041997 100.7557 259.8410 15.28092782566263
Epoch (UTC): 23 June 2017 21:33:45
Eccentricity: 0.0041997
inclination: 81.2416°
perigee height: 453 km
apogee height: 510 km
right ascension of ascending node: 6.9597°
argument of perigee: 100.7557°
revolutions per day: 15.28092782
mean anomaly at epoch: 259.8410°
orbit number at epoch: 56626

The dashed part of the orbit path shows where the satellite is in the earth's shadow,  

DLR